Snowfall_Accumulation
0.0 0.0 0.0 0.0 0.0 0.0 0.0 0.0 0.0 0.0 0.0 0.0 0.0 0.0 0.0 0.0 0.0 0.0 0.0 0.0 0.0 0.0 0.0 0.0 0.0 0.0 0.0 0.0 0.0 0.0 0.0 0.0 0.0 0.0 0.0 0.0 0.0 0.0 0.0 0.0 0.0 0.0 0.0
0.0 0.0 0.0 0.0 0.0 0.0 0.0 0.0 0.0 0.0 0.0 0.0 0.0 0.0 0.0 0.0 0.0 0.0 0.0 0.0 0.0 0.0 0.0 0.0 0.0 0.0 0.0 0.0 0.0 0.0 0.0 0.0 0.0 0.0 0.0 0.0 0.0 0.0 0.0 0.0 0.0 0.0 0.0
0.0 0.0 0.0 0.0 0.0 0.0 0.0 0.0 0.0 0.0 0.0 0.0 0.0 0.0 0.0 0.0 0.0 0.0 0.0 0.0 0.0 0.0 0.0 0.0 0.0 0.0 0.0 0.0 0.0 0.0 0.0 0.0 0.0 0.0 0.0 0.0 0.0 0.0 0.0 0.0 0.0 0.0 0.0
0.0 0.0 0.0 0.0 0.0 0.0 0.0 0.0 0.0 0.0 0.0 0.0 0.0 0.0 0.0 0.0 0.0 0.0 0.0 0.0 0.0 0.0 0.0 0.0 0.0 0.0 0.0 0.0 0.0 0.0 0.0 0.0 0.0 0.0 0.0 0.0 0.0 0.0 0.0 0.0 0.0 0.0 0.0
0.0 0.0 0.0 0.0 0.0 0.0 0.0 0.0 0.0 0.0 0.0 0.0 0.0 0.0 0.0 0.0 0.0 0.0 0.0 0.0 0.0 0.0 0.0 0.0 0.0 nan nan nan 0.0 0.0 0.0 0.0 0.0 0.0 0.0 0.0 0.0 0.0 0.0 0.0 0.0 0.0 0.0
0.0 0.0 0.0 0.0 0.0 0.0 0.0 0.0 0.0 0.0 0.0 0.0 0.0 0.0 0.0 0.0 nan nan 0.0 0.0 0.0 0.0 0.0 0.0 0.0 0.0 0.0 nan nan nan nan 0.0 0.0 0.0 0.0 0.0 0.0 0.0 0.0 0.0 0.1 0.2 0.6
0.0 0.0 0.0 0.0 0.0 0.0 0.0 0.0 0.0 0.0 0.0 0.0 0.0 0.0 0.0 0.0 nan nan nan 0.0 0.0 0.0 0.0 0.0 0.0 0.0 nan 0.0 nan nan nan nan nan 0.0 0.0 0.0 0.0 0.0 0.0 0.0 0.0 0.2 0.5
0.0 0.0 0.0 0.0 0.0 0.0 0.0 0.0 0.0 0.0 0.0 0.0 0.0 0.0 0.0 0.0 nan nan nan 0.0 0.0 0.0 0.0 0.0 0.0 0.0 0.0 0.0 0.0 0.0 0.0 0.0 0.0 0.0 0.0 0.0 0.0 0.0 0.0 0.0 0.0 0.3 0.4
0.0 0.0 0.0 0.0 0.0 0.0 0.0 0.0 0.0 0.0 0.0 0.0 0.0 0.0 0.0 0.0 nan nan 0.0 0.0 0.0 0.0 0.0 0.0 0.0 0.0 nan nan 0.0 0.1 0.1 0.0 nan nan nan nan nan nan nan 0.0 0.3 1.3 3.6
0.0 0.0 0.0 0.0 0.0 0.0 0.0 0.0 0.0 0.0 0.0 0.0 0.0 0.0 nan 0.0 nan nan nan 0.0 0.0 0.0 0.0 0.0 nan 0.0 nan nan 0.0 0.1 0.2 0.3 0.2 0.3 0.2 0.1 nan nan nan 0.0 0.1 1.2 2.2
0.0 0.0 0.0 0.0 0.0 0.0 0.0 0.0 0.0 0.0 0.0 0.0 0.0 0.0 0.0 0.0 0.0 nan nan 0.0 0.0 0.0 0.0 0.0 0.0 nan nan nan nan 0.0 0.1 0.2 0.4 0.9 1.5 1.1 0.8 0.7 0.6 0.1 0.0 0.3 2.2
0.0 0.0 0.0 0.0 0.0 0.0 0.0 0.0 0.0 0.0 0.0 0.0 0.0 0.0 0.0 0.0 nan nan nan nan nan 0.0 0.0 0.0 0.0 nan nan nan nan nan nan nan 0.6 0.8 0.6 0.8 1.1 1.3 1.4 1.4 1.3 1.0 0.8
0.1 0.0 0.0 0.0 0.0 0.0 0.0 0.0 0.0 0.0 0.0 0.0 0.0 0.0 0.0 0.0 0.0 nan nan nan nan 0.0 0.0 0.0 nan nan nan nan nan nan nan 0.2 0.5 0.8 0.7 0.9 0.8 0.9 0.9 1.1 1.2 1.4 1.4
0.0 0.0 0.0 0.0 0.0 0.0 0.0 0.0 0.0 0.0 0.0 0.0 0.0 0.1 0.0 0.0 0.0 0.0 0.0 0.0 nan 0.0 nan 0.0 nan 0.0 nan nan 0.0 0.1 0.1 0.2 0.4 0.7 0.7 0.5 0.4 1.2 1.4 1.1 2.2 1.7 3.7
0.0 0.0 0.0 0.0 0.0 0.0 0.0 0.0 0.0 0.0 0.0 0.0 0.0 0.0 0.0 0.0 0.0 0.0 0.0 0.0 0.0 0.0 nan 0.0 0.2 0.5 0.8 0.8 1.3 0.8 0.3 0.6 1.3 1.0 1.1 1.0 0.8 1.1 1.3 0.9 2.1 3.2 6.6
0.0 0.0 0.0 0.0 0.0 0.0 0.0 0.0 nan nan nan nan nan 0.0 0.0 nan nan nan nan nan nan nan 0.5 0.5 0.9 1.0 1.4 1.4 1.8 1.8 1.4 1.7 1.5 1.6 2.0 2.3 3.3 4.1 3.7 4.2 4.1 4.9 7.1
0.1 0.0 0.0 0.0 0.0 0.0 0.0 0.1 1.0 0.0 nan nan nan nan nan nan nan nan nan nan nan nan 0.7 1.0 1.2 1.4 1.5 1.8 2.1 2.3 2.9 2.1 1.2 2.5 4.0 5.6 6.6 7.2 6.0 6.3 5.0 5.0 6.7
0.0 nan 0.1 0.1 0.2 0.4 0.4 0.4 0.2 0.4 0.6 0.0 nan nan nan nan nan nan nan nan 0.4 nan 1.2 1.3 1.5 1.5 1.6 2.0 2.4 2.8 3.0 2.8 2.9 3.4 5.0 7.2 9.6 11.6 10.0 9.6 7.6 10.2 9.1
0.3 0.4 0.4 0.7 0.5 0.4 0.4 0.4 0.6 0.8 0.7 0.4 0.0 0.0 nan nan nan nan nan 0.0 1.0 2.1 2.3 2.7 2.0 2.0 2.1 2.2 2.7 4.0 3.7 4.3 4.5 7.8 8.1 9.9 9.1 11.9 11.2 8.7 8.5 5.2 nan
1.1 nan 0.7 0.9 0.8 0.7 0.8 0.8 1.0 0.9 1.1 0.7 0.4 0.1 0.0 0.1 0.2 0.2 0.0 0.5 1.7 2.0 1.8 2.0 1.8 2.3 2.4 2.7 4.0 4.3 4.9 4.2 4.6 5.4 5.8 7.8 7.7 9.6 12.1 9.7 6.7 10.8 6.2
1.1 1.2 nan 1.1 1.0 0.7 0.9 1.0 0.9 1.4 1.2 1.1 0.7 0.1 nan 0.9 2.1 1.5 1.2 1.7 1.5 1.8 2.1 2.0 2.4 2.5 2.5 3.5 4.3 5.1 4.6 4.4 3.5 6.1 6.9 7.5 8.3 13.0 5.8 6.3 7.5 6.7 7.5
1.5 1.3 1.4 1.2 1.1 1.0 0.9 1.0 1.2 1.4 1.4 1.7 1.4 0.4 nan 1.7 2.2 2.3 2.0 1.8 1.5 1.3 1.6 2.6 3.6 3.3 3.5 5.0 5.4 6.7 6.9 7.4 6.3 6.8 7.3 7.4 8.4 7.2 7.0 7.5 7.1 7.7 8.7
1.4 1.5 1.4 1.3 1.2 nan 1.1 1.1 1.4 1.4 1.6 2.1 2.3 2.4 2.2 2.2 2.6 3.1 2.6 2.3 2.7 3.0 2.4 3.0 3.6 3.9 2.2 3.2 3.9 5.6 9.8 7.0 5.6 5.6 10.1 8.0 7.4 7.3 8.0 9.9 8.0 9.3 7.1
1.7 1.5 1.6 1.5 1.5 1.4 1.6 1.7 1.6 nan 2.4 2.8 2.4 2.4 2.3 2.0 2.5 3.7 3.9 4.3 3.6 4.2 3.2 3.4 3.3 3.3 3.9 4.2 3.3 3.4 4.0 4.9 4.9 6.0 8.0 12.9 11.7 8.0 8.9 8.6 7.2 7.4 7.5
0.9 1.2 1.5 1.6 1.4 1.5 1.4 1.5 1.4 1.5 1.8 1.7 1.5 1.7 1.8 2.4 3.0 4.8 4.8 5.0 5.6 5.2 3.7 3.6 4.3 5.0 5.6 6.2 5.9 4.2 3.0 nan 5.2 2.5 9.8 9.6 10.5 9.2 10.3 9.5 6.7 6.7 7.0
1.3 1.5 1.4 1.4 1.7 1.6 1.6 2.3 2.0 1.6 1.8 2.1 2.5 2.9 2.7 3.5 4.0 5.2 6.5 7.2 7.5 6.3 6.4 5.6 5.3 6.1 6.5 7.0 5.1 3.0 nan nan 3.0 nan 5.0 8.5 10.2 9.0 8.1 9.3 8.7 9.2 9.0
Water_Equivalent
0.00 0.00 0.00 0.00 0.00 0.00 0.00 0.00 0.00 0.00 0.00 0.00 0.00 0.00 0.00 0.00 0.00 0.00 0.00 0.00 0.00 0.00 0.00 0.00 0.00 0.00 0.00 0.00 0.00 0.00 0.00 0.00 0.00 0.00 0.00 0.00 0.00 0.00 0.00 0.00 0.00 0.00 0.00
0.00 0.00 0.00 0.00 0.00 0.00 0.00 0.00 0.00 0.00 0.00 0.00 0.00 0.00 0.00 0.00 0.00 0.00 0.00 0.00 0.00 0.00 0.00 0.00 0.00 0.00 0.00 0.00 0.00 0.00 0.00 0.00 0.00 0.00 0.00 0.00 0.00 0.00 0.00 0.00 0.00 0.00 0.00
0.00 0.00 0.00 0.00 0.00 0.00 0.00 0.00 0.00 0.00 0.00 0.00 0.00 0.00 0.00 0.00 0.00 0.00 0.00 0.00 0.00 0.00 0.00 0.00 0.00 0.00 0.00 0.00 0.00 0.00 0.00 0.00 0.00 0.00 0.00 0.00 0.00 0.00 0.00 0.00 0.00 0.00 0.00
0.00 0.00 0.00 0.00 0.00 0.00 0.00 0.00 0.00 0.00 0.00 0.00 0.00 0.00 0.00 0.00 0.00 0.00 0.00 0.00 0.00 0.00 0.00 0.00 0.00 0.00 0.00 0.00 0.00 0.00 0.00 0.00 0.00 0.00 0.00 0.00 0.00 0.00 0.00 0.00 0.00 0.00 0.00
0.00 0.00 0.00 0.00 0.00 0.00 0.00 0.00 0.00 0.00 0.00 0.00 0.00 0.00 0.00 0.00 0.00 0.00 0.00 0.00 0.00 0.00 0.00 0.00 0.00 nan nan nan 0.00 0.00 0.00 0.00 0.00 0.00 0.00 0.00 0.00 0.02 0.00 0.00 0.00 0.00 0.01
0.00 0.00 0.00 0.00 0.00 0.00 0.00 0.00 0.00 0.00 0.00 0.00 0.00 0.00 0.00 0.00 nan nan 0.00 0.00 0.00 0.00 0.00 0.00 0.00 0.00 0.00 nan nan nan nan 0.00 0.00 0.00 0.00 0.00 0.00 0.00 0.00 0.00 0.04 0.09 0.25
0.00 0.00 0.00 0.00 0.00 0.00 0.00 0.00 0.00 0.00 0.00 0.00 0.00 0.00 0.00 0.00 nan nan nan 0.00 0.00 0.00 0.00 0.00 0.00 0.00 nan 0.00 nan nan nan nan nan 0.00 0.00 0.00 0.00 0.00 0.00 0.01 0.02 0.09 0.18
0.00 0.00 0.00 0.00 0.00 0.00 0.00 0.00 0.00 0.00 0.00 0.00 0.00 0.00 0.00 0.00 nan nan nan 0.00 0.00 0.00 0.00 0.00 0.00 0.00 0.00 0.00 0.00 0.00 0.00 0.00 0.00 0.00 0.00 0.00 0.00 0.00 0.00 0.00 0.00 0.09 0.15
0.00 0.00 0.00 0.00 0.00 0.00 0.00 0.00 0.00 0.00 0.00 0.00 0.00 0.00 0.00 0.00 nan nan 0.00 0.00 0.00 0.00 0.00 0.00 0.00 0.00 nan nan 0.00 0.02 0.02 0.00 nan nan nan nan nan nan nan 0.00 0.12 0.36 0.77
0.00 0.00 0.00 0.00 0.00 0.00 0.00 0.00 0.00 0.00 0.00 0.00 0.00 0.00 nan 0.00 nan nan nan 0.00 0.00 0.00 0.00 0.00 nan 0.00 nan nan 0.00 0.02 0.05 0.07 0.05 0.07 0.05 0.03 nan nan nan 0.00 0.03 0.37 0.49
0.00 0.00 0.00 0.00 0.00 0.00 0.00 0.00 0.00 0.00 0.00 0.00 0.00 0.00 0.00 0.00 0.00 nan nan 0.00 0.00 0.00 0.00 0.00 0.00 nan nan nan nan 0.00 0.02 0.04 0.08 0.19 0.29 0.21 0.14 0.13 0.12 0.04 0.00 0.10 0.62
0.00 0.00 0.00 0.00 0.00 0.00 0.00 0.00 0.00 0.00 0.00 0.00 0.00 0.00 0.00 0.00 nan nan nan nan nan 0.00 0.00 0.00 0.00 nan nan nan nan nan nan nan 0.12 0.15 0.11 0.13 0.19 0.24 0.25 0.26 0.25 0.25 0.22
0.01 0.01 0.00 0.00 0.00 0.00 0.00 0.00 0.00 0.00 0.00 0.00 0.00 0.00 0.00 0.00 0.00 nan nan nan nan 0.00 0.00 0.00 nan nan nan nan nan nan nan 0.05 0.08 0.15 0.11 0.18 0.19 0.18 0.15 0.18 0.16 0.19 0.20
0.00 0.00 0.00 0.00 0.00 0.00 0.00 0.00 0.00 0.00 0.00 0.00 0.00 0.03 0.01 0.00 0.00 0.00 0.00 0.00 nan 0.00 nan 0.00 nan 0.00 nan nan 0.01 0.03 0.03 0.04 0.08 0.15 0.14 0.07 0.06 0.34 0.34 0.26 0.49 0.37 0.79
0.00 0.00 0.00 0.00 0.00 0.00 0.00 0.00 0.00 0.00 0.00 0.00 0.00 0.00 0.01 0.01 0.00 0.00 0.00 0.00 0.00 0.00 nan 0.00 0.05 0.13 0.21 0.18 0.25 0.15 0.06 0.13 0.26 0.19 0.23 0.22 0.18 0.27 0.32 0.25 0.50 0.73 1.29
0.01 0.00 0.00 0.00 0.00 0.00 0.00 0.00 nan nan nan nan nan 0.00 0.00 nan nan nan nan nan nan nan 0.14 0.14 0.23 0.26 0.31 0.28 0.32 0.32 0.26 0.32 0.30 0.37 0.48 0.54 0.69 0.86 0.76 0.92 0.94 0.98 1.27
0.02 0.00 0.00 0.00 0.00 0.00 0.00 0.04 0.23 0.00 nan nan nan nan nan nan nan nan nan nan nan nan 0.17 0.23 0.29 0.33 0.34 0.38 0.42 0.48 0.58 0.40 0.20 0.62 1.01 1.30 1.44 1.49 1.23 1.18 0.96 0.97 1.22
0.01 nan 0.02 0.02 0.04 0.08 0.10 0.08 0.05 0.09 0.12 0.00 nan nan nan nan nan nan nan nan 0.10 nan 0.25 0.30 0.36 0.35 0.36 0.45 0.53 0.59 0.60 0.59 0.65 0.80 1.15 1.56 1.99 2.20 1.83 1.63 1.30 1.58 1.45
0.06 0.07 0.09 0.14 0.10 0.08 0.08 0.09 0.12 0.15 0.16 0.10 0.01 0.00 nan nan nan nan nan 0.01 0.20 0.41 0.46 0.59 0.43 0.45 0.48 0.52 0.62 0.92 0.81 0.97 1.06 1.70 1.65 1.95 1.78 2.25 1.89 1.44 1.42 0.84 nan
0.20 nan 0.14 0.17 0.15 0.13 0.15 0.14 0.17 0.19 0.24 0.18 0.12 0.02 0.01 0.03 0.08 0.05 0.01 0.11 0.34 0.38 0.34 0.42 0.39 0.52 0.57 0.70 0.96 0.99 1.07 0.93 0.90 1.12 1.09 1.52 1.46 1.79 2.03 1.53 1.02 1.63 0.93
0.19 0.20 nan 0.19 0.17 0.12 0.15 0.17 0.16 0.25 0.23 0.22 0.16 0.02 nan 0.21 0.50 0.36 0.27 0.34 0.31 0.36 0.48 0.44 0.55 0.63 0.67 0.92 1.10 1.15 1.02 1.00 0.78 1.23 1.40 1.46 1.52 2.08 0.95 1.01 1.13 1.00 1.10
0.24 0.20 0.21 0.18 0.16 0.15 0.13 0.17 0.21 0.25 0.25 0.31 0.26 0.12 nan 0.37 0.45 0.48 0.40 0.35 0.29 0.26 0.35 0.62 0.86 0.79 0.85 1.34 1.38 1.71 1.59 1.61 1.42 1.53 1.53 1.41 1.43 1.17 1.08 1.11 1.02 1.15 1.31
0.20 0.21 0.21 0.19 0.18 nan 0.18 0.17 0.22 0.23 0.28 0.35 0.39 0.41 0.40 0.39 0.44 0.53 0.46 0.43 0.51 0.62 0.50 0.67 0.90 0.99 0.57 0.86 1.12 1.66 2.26 1.50 1.30 1.28 1.92 1.42 1.17 1.13 1.20 1.46 1.22 1.34 0.96
0.26 0.23 0.24 0.22 0.23 0.24 0.26 0.28 0.26 nan 0.41 0.47 0.39 0.39 0.37 0.32 0.41 0.55 0.64 0.84 0.69 0.93 0.70 0.74 0.74 0.78 0.88 1.13 0.89 0.93 1.06 1.18 1.13 1.29 1.71 2.43 1.95 1.40 1.43 1.33 1.11 1.06 1.04
0.18 0.25 0.28 0.28 0.26 0.30 0.28 0.29 0.26 0.29 0.34 0.30 0.27 0.30 0.30 0.40 0.50 0.81 0.79 0.85 1.06 1.01 0.72 0.71 0.90 1.02 1.13 1.21 1.13 0.89 0.75 nan 1.33 0.82 2.03 1.84 1.81 1.47 1.59 1.44 1.01 1.02 0.99
0.28 0.34 0.30 0.30 0.34 0.33 0.34 0.45 0.37 0.31 0.33 0.42 0.52 0.60 0.50 0.61 0.65 0.89 1.07 1.14 1.15 0.99 1.02 1.01 1.01 1.15 1.26 1.43 0.98 0.87 nan nan 0.86 nan 1.12 1.72 1.70 1.46 1.31 1.40 1.28 1.35 1.29
SL_Ratio
nan nan nan nan nan nan nan nan nan nan nan nan nan nan nan nan nan nan nan nan nan nan nan nan nan nan nan nan nan nan nan nan nan nan nan nan nan nan nan nan nan nan nan
nan nan nan nan nan nan nan nan nan nan nan nan nan nan nan nan nan nan nan nan nan nan nan nan nan nan nan nan nan nan nan nan nan nan nan nan nan nan nan nan nan nan nan
nan nan nan nan nan nan nan nan nan nan nan nan nan nan nan nan nan nan nan nan nan nan nan nan nan nan nan nan nan nan nan nan nan nan nan nan nan nan nan nan nan nan nan
nan nan nan nan nan nan nan nan nan nan nan nan nan nan nan nan nan nan nan nan nan nan nan nan nan nan nan nan nan nan nan nan nan nan nan nan nan nan nan nan nan nan nan
nan nan nan nan nan nan nan nan nan nan nan nan nan nan nan nan nan nan nan nan nan nan nan nan nan nan nan nan nan nan nan nan nan nan nan nan 0.0 2.3 nan nan nan nan 2.6
nan nan nan nan nan nan nan nan nan nan nan nan nan nan nan nan nan nan nan nan nan nan nan nan nan nan nan nan nan nan nan nan nan nan nan nan nan nan nan nan 2.5 2.5 2.5
nan nan nan nan nan nan nan nan nan nan nan nan nan nan nan nan nan nan nan nan nan nan nan nan nan nan nan nan nan nan nan nan nan nan nan nan nan nan nan 2.6 2.6 2.5 2.7
nan nan nan nan nan nan nan nan nan nan nan nan nan nan nan nan nan nan nan nan nan nan nan nan nan nan nan nan nan nan nan nan nan nan nan nan nan nan nan nan 2.0 3.0 2.7
nan nan nan nan nan nan nan nan nan nan nan nan nan nan nan nan nan nan nan nan nan nan nan nan nan nan nan nan nan 3.2 3.4 nan nan nan nan nan nan nan nan nan 2.5 3.4 4.6
nan nan nan nan nan nan nan nan nan nan nan nan nan nan nan nan nan nan nan nan nan nan nan nan nan nan nan nan nan 3.4 3.8 4.0 3.7 3.8 4.0 3.9 nan nan nan nan 2.5 3.1 4.5
nan nan nan nan nan nan nan nan nan nan nan nan nan nan nan nan nan nan nan nan nan nan nan nan nan nan nan nan nan nan 3.8 4.0 4.2 4.7 5.0 5.2 5.3 5.1 4.9 4.1 3.0 2.5 3.5
nan nan nan nan nan nan nan nan nan nan nan nan nan nan nan nan nan nan nan nan nan nan nan nan nan nan nan nan nan nan nan nan 4.8 5.4 5.6 6.0 5.5 5.5 5.6 5.3 5.3 4.0 3.7
6.1 5.9 6.0 5.0 nan nan nan nan nan nan nan nan nan nan nan nan nan nan nan nan nan nan nan nan nan nan nan nan nan nan nan 4.9 5.7 5.3 6.0 4.8 4.5 5.1 5.9 5.8 7.4 7.3 6.9
7.5 nan nan nan nan nan nan nan nan nan nan nan 3.3 3.2 3.3 nan nan nan nan nan nan nan nan nan nan nan nan nan 3.5 4.1 4.8 5.2 5.3 4.5 5.1 6.7 6.4 3.6 4.1 4.3 4.4 4.7 4.7
10.0 nan nan nan nan nan nan nan nan nan nan nan nan nan 3.3 3.3 nan nan nan nan nan nan nan nan 3.5 3.5 3.7 4.5 5.1 5.1 4.5 4.3 5.0 5.1 4.7 4.7 4.6 3.9 4.2 3.5 4.2 4.4 5.2
5.0 nan nan nan nan nan nan nan nan nan nan nan nan nan nan nan nan nan nan nan nan nan 3.5 3.7 3.9 3.9 4.7 4.9 5.5 5.5 5.4 5.3 5.0 4.3 4.2 4.2 4.8 4.8 4.9 4.6 4.3 5.0 5.6
5.3 5.0 nan nan 5.0 5.0 nan 3.8 4.6 nan nan nan nan nan nan nan nan nan nan nan nan nan 4.2 4.1 4.1 4.2 4.4 4.6 4.9 4.8 5.0 5.2 5.8 4.1 4.0 4.3 4.6 4.8 4.9 5.3 5.3 5.2 5.5
5.4 nan 4.4 4.5 4.3 4.5 4.4 4.7 4.7 4.7 5.0 5.0 nan nan nan nan nan nan nan nan 4.1 nan 4.7 4.5 4.2 4.2 4.3 4.4 4.6 4.8 5.0 4.8 4.4 4.3 4.4 4.6 4.8 5.3 5.5 5.9 5.9 6.5 6.3
5.0 4.8 5.0 5.2 5.0 4.7 4.8 5.1 5.1 4.9 4.5 4.4 2.7 nan nan nan nan nan nan 3.6 4.9 5.3 5.0 4.6 4.6 4.5 4.3 4.2 4.3 4.3 4.5 4.4 4.2 4.6 4.9 5.1 5.1 5.3 5.9 6.0 6.0 6.2 nan
5.3 nan 5.3 5.5 5.6 5.6 5.3 5.7 5.7 4.9 4.4 4.0 3.6 3.5 2.8 3.3 2.9 3.5 2.6 4.4 4.9 5.2 5.2 4.7 4.6 4.3 4.1 3.8 4.2 4.4 4.5 4.5 5.0 4.8 5.3 5.1 5.3 5.4 6.0 6.3 6.6 6.6 6.7
5.6 5.9 nan 5.9 6.1 6.0 5.9 6.3 6.0 5.4 5.1 5.0 4.6 4.8 nan 4.2 4.2 4.3 4.5 5.0 5.0 4.9 4.5 4.5 4.3 4.0 3.7 3.8 3.9 4.4 4.5 4.5 4.5 5.0 5.0 5.2 5.5 6.2 6.1 6.3 6.6 6.7 6.8
6.1 6.3 6.7 7.0 6.9 6.6 6.7 6.0 5.7 5.5 5.6 5.5 5.5 3.5 nan 4.5 4.9 4.9 5.1 5.0 5.2 5.0 4.5 4.3 4.2 4.2 4.1 3.7 3.9 3.9 4.3 4.6 4.5 4.4 4.8 5.2 5.9 6.2 6.4 6.8 7.0 6.7 6.6
7.2 7.0 6.8 7.0 6.8 nan 6.1 6.5 6.2 6.0 5.9 5.8 5.8 5.8 5.5 5.8 5.8 6.0 5.6 5.4 5.3 4.9 4.8 4.4 4.1 3.9 3.8 3.7 3.5 3.4 4.3 4.6 4.3 4.3 5.3 5.6 6.3 6.5 6.6 6.7 6.5 6.9 7.4
6.3 6.6 6.6 6.6 6.4 6.0 6.0 6.0 6.2 nan 5.9 5.9 6.0 6.1 6.2 6.1 6.1 6.7 6.1 5.2 5.2 4.5 4.6 4.6 4.5 4.3 4.5 3.7 3.7 3.7 3.8 4.2 4.4 4.6 4.7 5.3 6.0 5.7 6.2 6.4 6.5 7.0 7.2
5.1 4.9 5.4 5.7 5.3 5.2 5.1 5.1 5.3 5.3 5.3 5.6 5.5 5.7 6.2 6.2 6.1 5.9 6.0 5.9 5.3 5.1 5.1 5.1 4.8 4.9 5.0 5.2 5.2 4.7 4.0 nan 3.9 3.0 4.9 5.2 5.8 6.3 6.5 6.6 6.6 6.5 7.1
4.7 4.5 4.6 4.7 4.9 4.9 4.8 5.2 5.3 5.2 5.4 5.1 4.9 4.9 5.3 5.8 6.1 5.9 6.0 6.3 6.5 6.3 6.3 5.6 5.2 5.3 5.2 4.9 5.2 3.5 nan nan 3.5 nan 4.4 4.9 6.0 6.2 6.2 6.6 6.8 6.8 7.0